Blythe, CA

6:00 AM PST on December 17, 2017 (GMT -0800)
Blythe

Weather History for KBLH - May, 2014

Change the Weather History Date:

Friday, May 16, 2014

  Actual Average Record
Temperature  
Mean Temperature 86 °F -  
Max Temperature 106 °F 94 °F 109 °F (1997)
Min Temperature 68 °F 64 °F 50 °F (2015)
Cooling Degree Days 22    
Growing Degree Days 36 (Base 50)    
Moisture  
Dew Point 22 °F    
Average Humidity 10    
Maximum Humidity 22    
Minimum Humidity 4    
Precipitation  
Precipitation 0.00 in - - ()
Sea Level Pressure  
Sea Level Pressure 29.83 in    
Wind  
Wind Speed 5 mph (South)    
Max Wind Speed 16 mph    
Max Gust Speed -    
Visibility 10 miles    
Events      
Averages and records for this station are not official NWS values.
T = Trace of Precipitation, MM = Missing Value Source: NWS Daily Summary

Daily Weather History Graph

Daily Weather History Graph

Search for Another Location

Airport or City:

Trip Planner

Search our weather history database for the weather conditions in past years. The results will help you decide how hot, cold, wet, or windy it might be!

Date:

Astronomy

May. 16, 2014 Rise Set
Actual Time 5:37 AM PDT 7:33 PM PDT
Civil Twilight 5:09 AM PDT 8:01 PM PDT
Nautical Twilight 4:36 AM PDT 8:34 PM PDT
Astronomical Twilight 4:00 AM PDT 9:10 PM PDT
Moon 9:44 PM PDT (5/16) 7:23 AM PDT (5/16)
Length of Visible Light 14h 51m
Length of Day
13h 55m
Waning Gibbous, 95% of the Moon is Illuminated
May 16
Waning Gibbous
May 21
Last Quarter
May 28
New
Jun 5
First Quarter
Jun 12
Full

Hourly Weather History & Observations

Time (PDT) Temp. Dew Point Humidity Pressure Visibility Wind Dir Wind Speed Gust Speed Precip Events Conditions
1:52 AM 73.9 °F 17.1 °F 12% 29.89 in 10.0 mi NW 4.6 mph - N/A   Clear
2:52 AM 70.0 °F 18.0 °F 14% 29.89 in 10.0 mi Calm Calm - N/A   Clear
3:52 AM 71.1 °F 19.0 °F 14% 29.88 in 10.0 mi NNW 4.6 mph - N/A   Clear
4:52 AM 68.0 °F 19.0 °F 15% 29.89 in 10.0 mi NNW 3.5 mph - N/A   Clear
5:52 AM 72.0 °F 21.0 °F 15% 29.90 in 10.0 mi NW 6.9 mph - N/A   Clear
6:52 AM 69.1 °F 19.9 °F 15% 29.92 in 10.0 mi Calm Calm - N/A   Clear
7:52 AM 75.0 °F 34.0 °F 22% 29.93 in 10.0 mi Calm Calm - N/A   Clear
8:52 AM 82.9 °F 24.1 °F 12% 29.93 in 10.0 mi Calm Calm - N/A   Clear
9:52 AM 90.0 °F 15.1 °F 6% 29.92 in 10.0 mi Calm Calm - N/A   Clear
10:52 AM 95.0 °F 32.0 °F 11% 29.91 in 10.0 mi South 4.6 mph - N/A   Clear
11:52 AM 98.1 °F 21.9 °F 7% 29.89 in 10.0 mi Calm Calm - N/A   Clear
1:52 PM 104.0 °F 21.9 °F 5% 29.83 in 10.0 mi SSE 10.4 mph - N/A   Clear
2:52 PM 102.9 °F 19.0 °F 5% 29.80 in 10.0 mi SE 6.9 mph - N/A   Clear
3:52 PM 105.1 °F 23.0 °F 6% 29.76 in 10.0 mi East 8.1 mph - N/A   Clear
4:52 PM 104.0 °F 21.0 °F 5% 29.74 in 10.0 mi East 8.1 mph - N/A   Clear
5:52 PM 102.9 °F 21.9 °F 6% 29.71 in 10.0 mi ESE 10.4 mph - N/A   Clear
6:52 PM 104.0 °F 12.0 °F 4% 29.71 in 10.0 mi WSW 15.0 mph - N/A   Clear
8:52 PM 96.1 °F 19.0 °F 6% 29.73 in 9.0 mi WSW 16.1 mph - N/A   Clear
9:52 PM 91.9 °F 21.9 °F 8% 29.73 in 7.0 mi SW 10.4 mph - N/A   Clear
10:52 PM 87.1 °F 27.0 °F 11% 29.74 in 7.0 mi SSE 12.7 mph - N/A   Clear
11:52 PM 84.0 °F 28.9 °F 14% 29.75 in 7.0 mi South 11.5 mph - N/A   Clear